Location: Sungai Jaoh
(2.9167°N, 113.9167°E)
Time: 06:13:45
(UTC+00:00)

Lacrosse 4 Rocket - Pass Details

Date: 30 November 2020
Orbit: 537 x 620 km, 68.0° (Epoch: 25 January)

Event Time Altitude Azimuth Distance (km) Brightness Sun altitude
Rises 21:25:22 0° 0° (N) 2,855 4.8 -12.2°
Reaches altitude 10° 21:27:52 10° 12° (NNE) 1,963 4.0 -11.6°
Maximum altitude 21:31:39 28° 71° (ENE) 1,174 3.6 -10.8°
Drops below altitude 10° 21:35:28 10° 130° (SE) 1,983 5.5 -9.9°
Sets 21:38:00 0° 142° (SE) 2,890 6.2 -9.3°
